Regional Weather Roundup
Issued by NWS

Home | Current Version | Previous Version | Text Only | Print | Product List | Glossary On
Versions: 1 2 3 4 5 6 7 8 9 10 11 12 13 14 15 16 17 18 19 20 21 22 23 24 25 26 27 28 29 30 31 32 33 34 35 36 37 38 39 40 41 42 43 44 45 46 47 48 49 50
000
ASUS43 KDMX 252008
RWRIA

WEATHER ROUNDUP FOR IOWA
NATIONAL WEATHER SERVICE DES MOINES IA
300 PM CDT SUN SEP 25 2016

NOTE: "FAIR" INDICATES FEW OR NO CLOUDS BELOW 12,000 FEET WITH NO
SIGNIFICANT WEATHER AND/OR OBSTRUCTIONS TO VISIBILITY.

* - THESE STATIONS ARE NOT NWS STATIONS...THUS NOT UNDER NWS
QUALITY CONTROL.  THEY ALSO DO NOT REPORT WEATHER SUCH
AS PRECIPITATION OR FOG.

IAZ001>003-012>014-020>022-031>034-043>046-252100-
   NORTHWEST IOWA

CITY           SKY/WX    TMP DP  RH WIND       PRES   REMARKS
CARROLL *      CLOUDY    64  48  55 NW21G30   30.07S
CHEROKEE *     CLOUDY    61  51  69 NW18G26   30.08S
DENISON *      CLOUDY    64  48  55 NW21G30   30.08S
LE MARS *      CLOUDY    64  48  55 MISG      30.09F
ORANGE CITY *  CLOUDY    63  50  63 NW20G28   30.08F
SHELDON *      CLOUDY    57  52  82 W13G25    30.06S
SIOUX CITY     MOSUNNY   68  49  50 NW25G36   30.09F
SPENCER        LGT RAIN  57  52  83 W23G37    30.05R
STORM LAKE *   CLOUDY    61  48  63 W21G31    30.08R
$$

IAZ055>058-069>071-079>083-090>094-252100-
   SOUTHWEST IOWA

CITY           SKY/WX    TMP DP  RH WIND       PRES   REMARKS
ATLANTIC *     CLOUDY    68  50  52 W18G28    30.09S
AUDUBON *      CLOUDY    64  52  63 NW15G24   30.11R
CLARINDA *       N/A     70  52  52 MISG      30.12F
COUNCIL BLFS * PTSUNNY   68  48  49 NW16G28   30.12R
CRESTON *      CLOUDY    66  52  59 NW14G22   30.11S
HARLAN  *      CLOUDY    66  48  52 NW20G26   30.14R
LAMONI         CLOUDY    67  52  58 NW13      30.09F
RED OAK *      PTSUNNY   72  50  46 NW15G29   30.10F
SHENANDOAH *   MOSUNNY   72  52  49 NW13G20   30.11F
$$

IAZ047>049-059>061-072>074-084-252100-
   CENTRAL IOWA

CITY           SKY/WX    TMP DP  RH WIND       PRES   REMARKS
AMES           CLOUDY    68  54  60 NW21G28   30.03F
ANKENY *         N/A    N/A N/A N/A MISG        N/A
BOONE *        CLOUDY    66  50  55 W17G28    30.04S
CHARITON *       N/A     66  54  63 W10G17    30.07R
DES MOINES     CLOUDY    68  52  56 NW18G24   30.04F
GRINNELL*      CLOUDY    66  53  62 W15G21    30.03F
KNOXVILLE *    CLOUDY    66  52  59 W16       30.03S
MARSHALLTOWN   CLOUDY    66  53  63 W14G22    30.00F
NEWTON *       CLOUDY    66  50  55 MISG      30.03S
PELLA *        CLOUDY    67  53  61 W12       30.05S
PERRY *        CLOUDY    69  50  51 W20G33    30.06S
$$

IAZ004>006-015-016-023>025-035-036-252100-
   NORTH CENTRAL IOWA

CITY           SKY/WX    TMP DP  RH WIND       PRES   REMARKS
ALGONA *       CLOUDY    63  50  63 W22G28    30.02S
CLARION *      CLOUDY    66  50  55 W16G22    30.01S
ESTHERVILLE    CLOUDY    60  51  72 W17G25    30.01S
FORT DODGE *   CLOUDY    63  48  59 W14G25    30.04S
MASON CITY     PTSUNNY   66  50  56 W20G26    29.99F
FOREST CITY *  CLOUDY    64  50  59 W14G21    29.99S
WEBSTER CITY * CLOUDY    66  50  55 W21G29    30.01S
IOWA FALLS *     N/A     66  51  59 W17G24    30.02F
$$

IAZ007>011-017>019-026>030-037>042-050>054-066-252100-
   NORTHEAST IOWA

CITY           SKY/WX    TMP DP  RH WIND       PRES   REMARKS
CEDAR RAPIDS   CLOUDY    71  64  78 W14       29.97F
CHARLES CITY * CLOUDY    66  52  59 W9G20     29.98F
CLINTON *      PTSUNNY   84  67  56 W16G24    29.92F HX  86
DECORAH *      CLOUDY    70  54  56 SW10      29.93S
DUBUQUE        CLOUDY    77  66  68 W15       29.93F
MONTICELLO *   PTSUNNY   75  66  73 SW10G17   29.94F
OELWEIN *      CLOUDY    70  55  60 W14G20    29.96F
WATERLOO       CLOUDY    68  52  56 W14G23    29.97S
$$

IAZ064-065-067-068-078-252100-
   EAST CENTRAL IOWA

CITY           SKY/WX    TMP DP  RH WIND       PRES   REMARKS
DAVENPORT      PTSUNNY   82  66  58 W13G18    29.94F HX  84
IOWA CITY      MOSUNNY   75  65  70 W14       29.98F
MT. PLEASANT * PTSUNNY   77  64  63 W10       30.00S
MUSCATINE *    PTSUNNY   79  66  65 W17       29.97S HX  81
QUAD CITIES    PTSUNNY   84  66  54 W18G24    29.93F HX  86
$$

IAZ062-063-075>077-085>089-095>099-252100-
   SOUTHEAST IOWA

CITY           SKY/WX    TMP DP  RH WIND       PRES   REMARKS
BURLINGTON     CLOUDY    70  66  87 W8        29.98F
FAIRFIELD *    MOSUNNY   72  57  60 W9        30.01S
FORT MADISON *   N/A     77  64  65 W9        30.00F
KEOKUK *       CLOUDY    77  66  69 W15       30.00S
OSKALOOSA *      N/A     68  54  61 NW14      30.03S
OTTUMWA        CLOUDY    69  53  56 W12       30.03F
WASHINGTON *     N/A    N/A N/A N/A MISG        N/A
$$

ABBREVIATIONS USED IN REMARKS
   TC - TEMPERATURES IN CELSIUS
  WCI - WIND CHILL INDEX
   HX - HEAT INDEX
  VSB - VISIBILITY
$$




USA.gov is the U.S. government's official web portal to all federal, state and local government web resources and services.